Project,Study,Ord_Occ,Event_Num,Cast_ID,Date_Time_UTC,Date_Time_PST,Lat_Dec,Lon_Dec,Sta_ID,Line,Sta,Depth,Pressure,PrQ,Temp1,Temp1Q,Temp2,Temp2Q,TempAve,Salt1,Salt1Q,Salt1_Corr,Salt2,Salt2Q,Salt2_Corr,SaltAve_Corr,Ox1,Ox1Q,Ox1_CruiseCorr,Ox1_StaCorr,Ox2,Ox2Q,Ox2_CruiseCorr,Ox2_StaCorr,OxAve_StaCorr,Ox1uM,Ox1uM_CruiseCorr,Ox1uM_StaCorr,Ox2uM,Ox2uM_CruiseCorr,Ox2uM_StaCorr,OxAveuM_StaCorr,FluorV,FluorQ,EstChl_CruiseCorr,EstChl_StaCorr,ISUSV,ISUSQ,EstNO3_CruiseCorr,EstNO3_StaCorr,SigThetaTS1,SigThetaTS1Q,SigThetaTS2,SigThetaTS2Q,BAT,XMiss,TransQ,pH,pHQ,SPAR,SPARQ,PAR,PARQ,PoT1,PoT2,DynHt,SVA,OxSat1,OxSat2,BTL_Depth,BTL_Temp,SaltB,OxB,OxBuM,Chl-a,Phaeo,NO3,NO2,NH4,PO4,SIL
CalCOFI,2007SR,053,55,2007_053u,23-Jul-2020 11:32:17,23-Jul-2020 03:32:17,33.74498,-120.41008,083.3 055.0,083.3,055.0,515.000,519.341,,6.6299,,6.6292,,6.6296,34.2906,,34.2908,34.2924,,34.2940,34.2924,0.4087,,0.4094,0.4032,1.9939,,0.8188,0.5822,0.4927,17.777,18.0693,18.0630,86.715,,27.9077,22.9854,0.0327,,,,-99.0,,-99.0,-99.0,26.9165,,26.9180,,0.6461,85.0840,,7.551,,1.9043E+00,,1.0000E-12,,6.5822,6.5815,0.8380,,5.976,29.148,515,6.630,34.2984,0.386,16.83,,,37.74,0.00,0.00,3.06,70.22
CalCOFI,2007SR,053,55,2007_053u,23-Jul-2020 11:32:27,23-Jul-2020 03:32:27,33.74498,-120.41008,083.3 055.0,083.3,055.0,514.000,518.331,,6.6359,,6.6399,,6.6379,34.2903,,34.2905,34.2915,,34.2931,34.2918,0.4089,,0.4096,0.4034,1.9872,,0.8028,0.5642,0.4838,17.782,18.0745,18.0682,86.421,,27.1184,22.5933,0.0325,,,,-99.0,,-99.0,-99.0,26.9154,,26.9159,,0.6455,85.0966,,7.551,,1.9043E+00,,1.0000E-12,,6.5882,6.5922,0.8381,,5.978,29.057,,,,,,,,,,,,
CalCOFI,2007SR,053,55,2007_053u,23-Jul-2020 11:32:28,23-Jul-2020 03:32:28,33.74498,-120.41007,083.3 055.0,083.3,055.0,513.000,517.321,,6.6452,,6.6469,,6.6461,34.2900,,34.2902,34.2916,,34.2932,34.2917,0.4208,,0.4220,0.4159,1.9852,,0.7981,0.5589,0.4874,18.300,18.6153,18.6094,86.334,,26.8849,22.7472,0.0320,,,,-99.0,,-99.0,-99.0,26.9140,,26.9150,,0.6464,85.0797,,7.551,,1.9043E+00,,1.0000E-12,,6.5976,6.5993,0.8381,,6.154,29.032,,,,,,,,,,,,
CalCOFI,2007SR,053,55,2007_053u,23-Jul-2020 11:32:29,23-Jul-2020 03:32:29,33.74498,-120.41006,083.3 055.0,083.3,055.0,512.000,516.311,,6.6645,,6.6715,,6.6680,34.2892,,34.2894,34.2907,,34.2923,34.2909,0.4222,,0.4235,0.4173,1.9846,,0.7966,0.5573,0.4873,18.360,18.6779,18.6721,86.308,,26.8151,22.7436,0.0322,,,,-99.0,,-99.0,-99.0,26.9108,,26.9110,,0.6459,85.0883,,7.551,,1.9043E+00,,1.0000E-12,,6.6169,6.6239,0.8381,,6.176,29.039,,,,,,,,,,,,
CalCOFI,2007SR,053,55,2007_053u,23-Jul-2020 11:32:30,23-Jul-2020 03:32:30,33.74498,-120.41006,083.3 055.0,083.3,055.0,511.000,515.302,,6.6860,,6.6915,,6.6888,34.2877,,34.2879,34.2890,,34.2906,34.2893,0.4242,,0.4255,0.4194,1.9822,,0.7909,0.5508,0.4851,18.447,18.7687,18.7630,86.207,,26.5439,22.6535,0.0330,,,,-99.0,,-99.0,-99.0,26.9067,,26.9070,,0.6464,85.0792,,7.551,,1.9043E+00,,1.0000E-12,,6.6384,6.6439,0.8381,,6.208,29.018,,,,,,,,,,,,
CalCOFI,2007SR,053,55,2007_053u,23-Jul-2020 11:32:31,23-Jul-2020 03:32:31,33.74498,-120.41007,083.3 055.0,083.3,055.0,510.000,514.292,,6.6956,,6.6969,,6.6963,34.2870,,34.2872,34.2884,,34.2900,34.2886,0.4208,,0.4220,0.4159,1.9745,,0.7725,0.5302,0.4731,18.301,18.6163,18.6104,85.872,,25.6446,22.1275,0.0327,,,,-99.0,,-99.0,-99.0,26.9049,,26.9058,,0.6474,85.0578,,7.551,,1.9043E+00,,1.0000E-12,,6.6480,6.6494,0.8381,,6.161,28.909,,,,,,,,,,,,
CalCOFI,2007SR,053,55,2007_053u,23-Jul-2020 11:32:32,23-Jul-2020 03:32:32,33.74498,-120.41008,083.3 055.0,083.3,055.0,509.000,513.282,,6.6965,,6.6965,,6.6965,34.2870,,34.2872,34.2883,,34.2899,34.2886,0.4235,,0.4248,0.4187,1.9769,,0.7783,0.5366,0.4777,18.418,18.7385,18.7327,85.976,,25.9238,22.3283,0.0328,,,,-99.0,,-99.0,-99.0,26.9047,,26.9058,,0.6464,85.0786,,7.551,,1.9043E+00,,1.0000E-12,,6.6491,6.6491,0.8381,,6.200,28.944,,,,,,,,,,,,
CalCOFI,2007SR,053,55,2007_053u,23-Jul-2020 11:32:33,23-Jul-2020 03:32:33,33.74498,-120.41008,083.3 055.0,083.3,055.0,508.000,512.273,,6.6963,,6.6967,,6.6965,34.2871,,34.2873,34.2885,,34.2901,34.2887,0.4238,,0.4251,0.4190,1.9768,,0.7780,0.5363,0.4777,18.430,18.7510,18.7452,85.969,,25.9050,22.3251,0.0330,,,,-99.0,,-99.0,-99.0,26.9048,,26.9059,,0.6456,85.0950,,7.551,,1.9043E+00,,1.0000E-12,,6.6490,6.6494,0.8381,,6.204,28.941,,,,,,,,,,,,
CalCOFI,2007SR,053,55,2007_053u,23-Jul-2020 11:32:35,23-Jul-2020 03:32:35,33.74499,-120.41007,083.3 055.0,083.3,055.0,507.000,511.263,,6.6998,,6.7014,,6.7006,34.2868,,34.2870,34.2882,,34.2898,34.2884,0.4250,,0.4264,0.4203,1.9766,,0.7775,0.5358,0.4781,18.482,18.8053,18.7995,85.963,,25.8889,22.3442,0.0328,,,,-99.0,,-99.0,-99.0,26.9041,,26.9050,,0.6461,85.0838,,7.551,,1.9043E+00,,1.0000E-12,,6.6525,6.6541,0.8381,,6.222,28.943,,,,,,,,,,,,
CalCOFI,2007SR,053,55,2007_053u,23-Jul-2020 11:32:36,23-Jul-2020 03:32:36,33.74500,-120.41006,083.3 055.0,083.3,055.0,506.000,510.253,,6.7054,,6.7076,,6.7065,34.2863,,34.2865,34.2877,,34.2893,34.2879,0.4292,,0.4308,0.4247,1.9759,,0.7759,0.5339,0.4793,18.666,18.9973,18.9918,85.931,,25.8030,22.3974,0.0338,,,,-99.0,,-99.0,-99.0,26.9030,,26.9038,,0.6459,85.0893,,7.551,,1.9043E+00,,1.0000E-12,,6.6582,6.6604,0.8381,,6.285,28.936,,,,,,,,,,,,
CalCOFI,2007SR,053,55,2007_053u,23-Jul-2020 11:32:37,23-Jul-2020 03:32:37,33.74500,-120.41006,083.3 055.0,083.3,055.0,505.000,509.244,,6.7068,,6.7081,,6.7075,34.2862,,34.2864,34.2876,,34.2892,34.2878,0.4251,,0.4265,0.4204,1.9720,,0.7666,0.5235,0.4720,18.486,18.8094,18.8037,85.762,,25.3493,22.0765,0.0316,,,,-99.0,,-99.0,-99.0,26.9027,,26.9036,,0.6453,85.1009,,7.551,,1.9043E+00,,1.0000E-12,,6.6597,6.6610,0.8381,,6.225,28.879,,,,,,,,,,,,
CalCOFI,2007SR,053,55,2007_053u,23-Jul-2020 11:32:38,23-Jul-2020 03:32:38,33.74500,-120.41006,083.3 055.0,083.3,055.0,504.000,508.234,,6.7176,,6.7194,,6.7185,34.2863,,34.2865,34.2879,,34.2895,34.2880,0.4295,,0.4311,0.4250,1.9680,,0.7570,0.5127,0.4689,18.681,19.0130,19.0074,85.590,,24.8876,21.9475,0.0319,,,,-99.0,,-99.0,-99.0,26.9013,,26.9024,,0.6459,85.0897,,7.551,,1.9043E+00,,1.0000E-12,,6.6706,6.6724,0.8381,,6.292,28.829,,,,,,,,,,,,
CalCOFI,2007SR,053,55,2007_053u,23-Jul-2020 11:32:39,23-Jul-2020 03:32:39,33.74500,-120.41006,083.3 055.0,083.3,055.0,503.000,507.224,,6.7266,,6.7272,,6.7269,34.2851,,34.2853,34.2866,,34.2882,34.2868,0.4344,,0.4362,0.4301,1.9715,,0.7654,0.5221,0.4761,18.893,19.2343,19.2289,85.742,,25.2956,22.2623,0.0334,,,,-99.0,,-99.0,-99.0,26.8991,,26.9002,,0.6458,85.0903,,7.552,,1.9043E+00,,1.0000E-12,,6.6797,6.6802,0.8381,,6.364,28.885,,,,,,,,,,,,
CalCOFI,2007SR,053,55,2007_053u,23-Jul-2020 11:32:40,23-Jul-2020 03:32:40,33.74500,-120.41006,083.3 055.0,083.3,055.0,502.000,506.215,,6.7283,,6.7282,,6.7283,34.2851,,34.2853,34.2867,,34.2883,34.2868,0.4324,,0.4341,0.4280,1.9714,,0.7651,0.5219,0.4750,18.807,19.1445,19.1391,85.737,,25.2822,22.2107,0.0329,,,,-99.0,,-99.0,-99.0,26.8989,,26.9002,,0.6457,85.0925,,7.551,,1.9043E+00,,1.0000E-12,,6.6815,6.6813,0.8381,,6.336,28.884,,,,,,,,,,,,
CalCOFI,2007SR,053,55,2007_053u,23-Jul-2020 11:32:41,23-Jul-2020 03:32:41,33.74500,-120.41006,083.3 055.0,083.3,055.0,501.000,505.205,,6.7349,,6.7351,,6.7350,34.2851,,34.2853,34.2865,,34.2881,34.2867,0.4366,,0.4385,0.4324,1.9667,,0.7539,0.5093,0.4709,18.986,19.3314,19.3261,85.530,,24.7265,22.0263,0.0334,,,,-99.0,,-99.0,-99.0,26.8980,,26.8991,,0.6458,85.0914,,7.551,,1.9043E+00,,1.0000E-12,,6.6881,6.6883,0.8381,,6.397,28.819,,,,,,,,,,,,
CalCOFI,2007SR,053,55,2007_053u,23-Jul-2020 11:32:42,23-Jul-2020 03:32:42,33.74500,-120.41008,083.3 055.0,083.3,055.0,500.000,504.196,,6.7396,,6.7404,,6.7400,34.2845,,34.2847,34.2861,,34.2877,34.2862,0.4337,,0.4355,0.4294,1.9712,,0.7646,0.5213,0.4754,18.860,19.1999,19.1945,85.727,,25.2554,22.2250,0.0332,,,,-99.0,,-99.0,-99.0,26.8969,,26.8981,,0.6461,85.0858,,7.552,,1.9043E+00,,1.0000E-12,,6.6929,6.6937,0.8381,,6.355,28.888,,,,,,,,,,,,
CalCOFI,2007SR,053,55,2007_053u,23-Jul-2020 11:32:43,23-Jul-2020 03:32:43,33.74500,-120.41008,083.3 055.0,083.3,055.0,499.000,503.186,,6.7467,,6.7467,,6.7467,34.2843,,34.2845,34.2857,,34.2873,34.2859,0.4391,,0.4411,0.4350,1.9705,,0.7630,0.5194,0.4772,19.096,19.4462,19.4410,85.699,,25.1802,22.3106,0.0335,,,,-99.0,,-99.0,-99.0,26.8957,,26.8969,,0.6459,85.0899,,7.551,,1.9043E+00,,1.0000E-12,,6.7000,6.7000,0.8381,,6.436,28.883,,,,,,,,,,,,
CalCOFI,2007SR,053,55,2007_053u,23-Jul-2020 11:32:44,23-Jul-2020 03:32:44,33.74500,-120.41006,083.3 055.0,083.3,055.0,498.000,502.176,,6.7545,,6.7543,,6.7544,34.2838,,34.2840,34.2855,,34.2871,34.2856,0.4369,,0.4388,0.4327,1.9705,,0.7630,0.5194,0.4761,18.998,19.3439,19.3386,85.697,,25.1748,22.2567,0.0316,,,,-99.0,,-99.0,-99.0,26.8943,,26.8957,,0.6460,85.0861,,7.552,,1.9043E+00,,1.0000E-12,,6.7079,6.7077,0.8381,,6.404,28.887,,,,,,,,,,,,
CalCOFI,2007SR,053,55,2007_053u,23-Jul-2020 11:32:45,23-Jul-2020 03:32:45,33.74500,-120.41006,083.3 055.0,083.3,055.0,497.000,501.167,,6.7583,,6.7590,,6.7587,34.2836,,34.2838,34.2850,,34.2866,34.2852,0.4409,,0.4430,0.4369,1.9668,,0.7541,0.5095,0.4732,19.174,19.5276,19.5225,85.535,,24.7399,22.1312,0.0332,,,,-99.0,,-99.0,-99.0,26.8937,,26.8947,,0.6459,85.0882,,7.552,,1.9043E+00,,1.0000E-12,,6.7118,6.7125,0.8381,,6.464,28.836,,,,,,,,,,,,
CalCOFI,2007SR,053,55,2007_053u,23-Jul-2020 11:32:46,23-Jul-2020 03:32:46,33.74500,-120.41006,083.3 055.0,083.3,055.0,496.000,500.157,,6.7615,,6.7619,,6.7617,34.2834,,34.2836,34.2849,,34.2865,34.2851,0.4419,,0.4440,0.4379,1.9625,,0.7439,0.4980,0.4680,19.220,19.5757,19.5706,85.349,,24.2406,21.9056,0.0319,,,,-99.0,,-99.0,-99.0,26.8931,,26.8942,,0.6457,85.0920,,7.552,,1.9043E+00,,1.0000E-12,,6.7151,6.7155,0.8381,,6.480,28.775,,,,,,,,,,,,
CalCOFI,2007SR,053,55,2007_053u,23-Jul-2020 11:32:47,23-Jul-2020 03:32:47,33.74500,-120.41006,083.3 055.0,083.3,055.0,495.000,499.148,,6.7695,,6.7698,,6.7697,34.2832,,34.2834,34.2847,,34.2863,34.2849,0.4422,,0.4444,0.4382,1.9653,,0.7506,0.5055,0.4719,19.233,19.5892,19.5842,85.471,,24.5681,22.0762,0.0320,,,,-99.0,,-99.0,-99.0,26.8918,,26.8930,,0.6454,85.0997,,7.553,,1.9043E+00,,1.0000E-12,,6.7232,6.7234,0.8381,,6.485,28.821,,,,,,,,,,,,
CalCOFI,2007SR,053,55,2007_053u,23-Jul-2020 11:32:48,23-Jul-2020 03:32:48,33.74500,-120.41006,083.3 055.0,083.3,055.0,494.000,498.138,,6.7754,,6.7767,,6.7761,34.2828,,34.2830,34.2842,,34.2858,34.2844,0.4478,,0.4502,0.4441,1.9648,,0.7494,0.5042,0.4742,19.473,19.8398,19.8349,85.448,,24.5064,22.1707,0.0334,,,,-99.0,,-99.0,-99.0,26.8907,,26.8916,,0.6453,85.1016,,7.553,,1.9043E+00,,1.0000E-12,,6.7291,6.7304,0.8381,,6.567,28.818,,,,,,,,,,,,
CalCOFI,2007SR,053,55,2007_053u,23-Jul-2020 11:32:49,23-Jul-2020 03:32:49,33.74500,-120.41006,083.3 055.0,083.3,055.0,493.000,497.128,,6.7804,,6.7809,,6.7807,34.2824,,34.2826,34.2839,,34.2855,34.2841,0.4473,,0.4497,0.4436,1.9643,,0.7482,0.5028,0.4732,19.453,19.8189,19.8140,85.428,,24.4527,22.1334,0.0322,,,,-99.0,,-99.0,-99.0,26.8897,,26.8908,,0.6456,85.0952,,7.554,,1.9043E+00,,1.0000E-12,,6.7342,6.7347,0.8381,,6.561,28.814,,,,,,,,,,,,
CalCOFI,2007SR,053,55,2007_053u,23-Jul-2020 11:32:50,23-Jul-2020 03:32:50,33.74500,-120.41006,083.3 055.0,083.3,055.0,492.000,496.119,,6.7851,,6.7850,,6.7851,34.2825,,34.2827,34.2838,,34.2854,34.2841,0.4535,,0.4562,0.4501,1.9638,,0.7470,0.5015,0.4758,19.721,20.0987,20.0940,85.408,,24.3990,22.2465,0.0317,,,,-99.0,,-99.0,-99.0,26.8891,,26.8902,,0.6458,85.0905,,7.554,,1.9043E+00,,1.0000E-12,,6.7389,6.7389,0.8381,,6.652,28.810,,,,,,,,,,,,
CalCOFI,2007SR,053,55,2007_053u,23-Jul-2020 11:32:51,23-Jul-2020 03:32:51,33.74500,-120.41006,083.3 055.0,083.3,055.0,491.000,495.109,,6.8016,,6.8004,,6.8010,34.2818,,34.2820,34.2840,,34.2856,34.2838,0.4562,,0.4590,0.4529,1.9628,,0.7446,0.4988,0.4759,19.838,20.2208,20.2162,85.363,,24.2782,22.2472,0.0330,,,,-99.0,,-99.0,-99.0,26.8864,,26.8883,,0.6456,85.0942,,7.555,,1.9043E+00,,1.0000E-12,,6.7555,6.7543,0.8381,,6.694,28.805,,,,,,,,,,,,
CalCOFI,2007SR,053,55,2007_053u,23-Jul-2020 11:32:52,23-Jul-2020 03:32:52,33.74500,-120.41006,083.3 055.0,083.3,055.0,490.000,494.100,,6.8262,,6.8268,,6.8265,34.2806,,34.2808,34.2823,,34.2839,34.2824,0.4590,,0.4619,0.4558,1.9612,,0.7408,0.4945,0.4752,19.963,20.3513,20.3468,85.295,,24.0957,22.2213,0.0330,,,,-99.0,,-99.0,-99.0,26.8821,,26.8833,,0.6457,85.0934,,7.555,,1.9043E+00,,1.0000E-12,,6.7801,6.7807,0.8381,,6.740,28.799,,,,,,,,,,,,
CalCOFI,2007SR,053,55,2007_053u,23-Jul-2020 11:32:53,23-Jul-2020 03:32:53,33.74500,-120.41006,083.3 055.0,083.3,055.0,489.000,493.090,,6.8377,,6.8365,,6.8371,34.2797,,34.2799,34.2814,,34.2830,34.2815,0.4598,,0.4627,0.4566,1.9599,,0.7377,0.4910,0.4738,19.996,20.3857,20.3813,85.238,,23.9426,22.1620,0.0330,,,,-99.0,,-99.0,-99.0,26.8798,,26.8813,,0.6456,85.0951,,7.555,,1.9043E+00,,1.0000E-12,,6.7917,6.7905,0.8381,,6.753,28.786,,,,,,,,,,,,
CalCOFI,2007SR,053,55,2007_053u,23-Jul-2020 11:32:54,23-Jul-2020 03:32:54,33.74500,-120.41006,083.3 055.0,083.3,055.0,488.000,492.081,,6.8398,,6.8402,,6.8400,34.2794,,34.2796,34.2809,,34.2825,34.2811,0.4552,,0.4579,0.4518,1.9592,,0.7360,0.4892,0.4705,19.797,20.1780,20.1734,85.208,,23.8621,22.0178,0.0326,,,,-99.0,,-99.0,-99.0,26.8793,,26.8804,,0.6459,85.0894,,7.555,,1.9043E+00,,1.0000E-12,,6.7939,6.7942,0.8381,,6.686,28.778,,,,,,,,,,,,
CalCOFI,2007SR,053,55,2007_053u,23-Jul-2020 11:32:55,23-Jul-2020 03:32:55,33.74500,-120.41006,083.3 055.0,083.3,055.0,487.000,491.071,,6.8410,,6.8415,,6.8413,34.2794,,34.2796,34.2809,,34.2825,34.2811,0.4599,,0.4628,0.4567,1.9606,,0.7393,0.4929,0.4748,20.002,20.3920,20.3876,85.270,,24.0285,22.2081,0.0323,,,,-99.0,,-99.0,-99.0,26.8791,,26.8802,,0.6457,85.0931,,7.555,,1.9043E+00,,1.0000E-12,,6.7952,6.7957,0.8381,,6.755,28.800,,,,,,,,,,,,
CalCOFI,2007SR,053,55,2007_053u,23-Jul-2020 11:32:56,23-Jul-2020 03:32:56,33.74500,-120.41006,083.3 055.0,083.3,055.0,486.000,490.062,,6.8427,,6.8428,,6.8428,34.2793,,34.2795,34.2808,,34.2824,34.2810,0.4638,,0.4669,0.4608,1.9594,,0.7365,0.4897,0.4753,20.171,20.5684,20.5641,85.216,,23.8836,22.2239,0.0328,,,,-99.0,,-99.0,-99.0,26.8788,,26.8799,,0.6452,85.1027,,7.555,,1.9043E+00,,1.0000E-12,,6.7970,6.7970,0.8381,,6.813,28.783,,,,,,,,,,,,
CalCOFI,2007SR,053,55,2007_053u,23-Jul-2020 11:32:57,23-Jul-2020 03:32:57,33.74500,-120.41006,083.3 055.0,083.3,055.0,485.000,489.052,,6.8451,,6.8452,,6.8452,34.2796,,34.2798,34.2810,,34.2826,34.2812,0.4587,,0.4616,0.4555,1.9571,,0.7310,0.4835,0.4695,19.951,20.3387,20.3343,85.115,,23.6124,21.9734,0.0325,,,,-99.0,,-99.0,-99.0,26.8786,,26.8798,,0.6458,85.0903,,7.555,,1.9043E+00,,1.0000E-12,,6.7994,6.7995,0.8381,,6.739,28.750,,,,,,,,,,,,
CalCOFI,2007SR,053,55,2007_053u,23-Jul-2020 11:32:58,23-Jul-2020 03:32:58,33.74500,-120.41006,083.3 055.0,083.3,055.0,484.000,488.043,,6.8507,,6.8504,,6.8506,34.2791,,34.2793,34.2806,,34.2822,34.2808,0.4583,,0.4612,0.4551,1.9554,,0.7269,0.4790,0.4671,19.933,20.3200,20.3155,85.044,,23.4218,21.8687,0.0341,,,,-99.0,,-99.0,-99.0,26.8775,,26.8787,,0.6466,85.0740,,7.555,,1.9043E+00,,1.0000E-12,,6.8051,6.8048,0.8381,,6.734,28.729,,,,,,,,,,,,
CalCOFI,2007SR,053,55,2007_053u,23-Jul-2020 11:32:59,23-Jul-2020 03:32:59,33.74500,-120.41006,083.3 055.0,083.3,055.0,483.000,487.033,,6.8509,,6.8508,,6.8509,34.2791,,34.2793,34.2804,,34.2820,34.2807,0.4583,,0.4612,0.4551,1.9609,,0.7401,0.4937,0.4744,19.930,20.3168,20.3124,85.281,,24.0581,22.1853,0.0331,,,,-99.0,,-99.0,-99.0,26.8775,,26.8785,,0.6464,85.0791,,7.555,,1.9043E+00,,1.0000E-12,,6.8054,6.8053,0.8381,,6.733,28.810,,,,,,,,,,,,
CalCOFI,2007SR,053,55,2007_053u,23-Jul-2020 11:32:59,23-Jul-2020 03:32:59,33.74500,-120.41006,083.3 055.0,083.3,055.0,482.000,486.023,,6.8506,,6.8505,,6.8506,34.2791,,34.2793,34.2806,,34.2822,34.2808,0.4583,,0.4612,0.4551,1.9583,,0.7338,0.4867,0.4709,19.931,20.3179,20.3134,85.170,,23.7601,22.0368,0.0326,,,,-99.0,,-99.0,-99.0,26.8775,,26.8787,,0.6470,85.0658,,7.555,,1.9043E+00,,1.0000E-12,,6.8052,6.8051,0.8381,,6.733,28.772,,,,,,,,,,,,
CalCOFI,2007SR,053,55,2007_053u,23-Jul-2020 11:33:01,23-Jul-2020 03:33:01,33.74500,-120.41006,083.3 055.0,083.3,055.0,481.000,485.014,,6.8503,,6.8502,,6.8503,34.2791,,34.2793,34.2805,,34.2821,34.2807,0.4615,,0.4645,0.4584,1.9578,,0.7327,0.4854,0.4719,20.069,20.4619,20.4576,85.145,,23.6930,22.0753,0.0325,,,,-99.0,,-99.0,-99.0,26.8775,,26.8787,,0.6458,85.0908,,7.555,,1.9043E+00,,1.0000E-12,,6.8050,6.8049,0.8381,,6.780,28.763,,,,,,,,,,,,
CalCOFI,2007SR,053,55,2007_053u,23-Jul-2020 11:33:02,23-Jul-2020 03:33:02,33.74500,-120.41006,083.3 055.0,083.3,055.0,480.000,484.004,,6.8500,,6.8499,,6.8500,34.2791,,34.2793,34.2805,,34.2821,34.2807,0.4634,,0.4665,0.4604,1.9575,,0.7319,0.4846,0.4725,20.154,20.5507,20.5464,85.134,,23.6634,22.1049,0.0326,,,,-99.0,,-99.0,-99.0,26.8776,,26.8786,,0.6455,85.0972,,7.555,,1.9043E+00,,1.0000E-12,,6.8048,6.8048,0.8381,,6.808,28.759,,,,,,,,,,,,
CalCOFI,2007SR,053,55,2007_053u,23-Jul-2020 11:33:03,23-Jul-2020 03:33:03,33.74500,-120.41006,083.3 055.0,083.3,055.0,479.000,482.995,,6.8511,,6.8504,,6.8508,34.2791,,34.2793,34.2805,,34.2821,34.2807,0.4624,,0.4655,0.4594,1.9572,,0.7312,0.4838,0.4716,20.112,20.5068,20.5025,85.122,,23.6312,22.0669,0.0333,,,,-99.0,,-99.0,-99.0,26.8774,,26.8785,,0.6452,85.1028,,7.555,,1.9043E+00,,1.0000E-12,,6.8060,6.8053,0.8381,,6.794,28.756,,,,,,,,,,,,
CalCOFI,2007SR,053,55,2007_053u,23-Jul-2020 11:33:04,23-Jul-2020 03:33:04,33.74500,-120.41006,083.3 055.0,083.3,055.0,478.000,481.985,,6.8575,,6.8550,,6.8563,34.2786,,34.2788,34.2802,,34.2818,34.2803,0.4614,,0.4644,0.4583,1.9568,,0.7303,0.4827,0.4705,20.066,20.4588,20.4544,85.101,,23.5749,22.0147,0.0332,,,,-99.0,,-99.0,-99.0,26.8761,,26.8777,,0.6455,85.0966,,7.555,,1.9043E+00,,1.0000E-12,,6.8125,6.8100,0.8381,,6.780,28.752,,,,,,,,,,,,
CalCOFI,2007SR,053,55,2007_053u,23-Jul-2020 11:33:05,23-Jul-2020 03:33:05,33.74500,-120.41006,083.3 055.0,083.3,055.0,477.000,480.976,,6.8563,,6.8562,,6.8563,34.2789,,34.2791,34.2804,,34.2820,34.2806,0.4637,,0.4668,0.4607,1.9576,,0.7322,0.4849,0.4728,20.169,20.5663,20.5621,85.140,,23.6795,22.1208,0.0326,,,,-99.0,,-99.0,-99.0,26.8765,,26.8777,,0.6458,85.0902,,7.555,,1.9043E+00,,1.0000E-12,,6.8113,6.8112,0.8381,,6.814,28.765,,,,,,,,,,,,
CalCOFI,2007SR,053,55,2007_053u,23-Jul-2020 11:33:06,23-Jul-2020 03:33:06,33.74500,-120.41006,083.3 055.0,083.3,055.0,476.000,479.966,,6.8592,,6.8588,,6.8590,34.2787,,34.2789,34.2801,,34.2817,34.2803,0.4688,,0.4721,0.4660,1.9569,,0.7305,0.4830,0.4745,20.389,20.7960,20.7919,85.107,,23.5910,22.1915,0.0325,,,,-99.0,,-99.0,-99.0,26.8759,,26.8771,,0.6458,85.0903,,7.556,,1.9043E+00,,1.0000E-12,,6.8144,6.8139,0.8381,,6.889,28.756,,,,,,,,,,,,
CalCOFI,2007SR,053,55,2007_053u,23-Jul-2020 11:33:07,23-Jul-2020 03:33:07,33.74500,-120.41006,083.3 055.0,083.3,055.0,475.000,478.957,,6.8675,,6.8663,,6.8669,34.2793,,34.2795,34.2806,,34.2822,34.2809,0.4688,,0.4721,0.4660,1.9560,,0.7284,0.4806,0.4733,20.389,20.7960,20.7919,85.069,,23.4889,22.1404,0.0326,,,,-99.0,,-99.0,-99.0,26.8752,,26.8765,,0.6458,85.0903,,7.555,,1.9043E+00,,1.0000E-12,,6.8227,6.8215,0.8381,,6.890,28.748,,,,,,,,,,,,
CalCOFI,2007SR,053,55,2007_053u,23-Jul-2020 11:33:08,23-Jul-2020 03:33:08,33.74500,-120.41006,083.3 055.0,083.3,055.0,474.000,477.947,,6.8779,,6.8745,,6.8762,34.2777,,34.2779,34.2793,,34.2809,34.2794,0.4664,,0.4696,0.4635,1.9594,,0.7365,0.4897,0.4766,20.284,20.6864,20.6822,85.217,,23.8863,22.2843,0.0332,,,,-99.0,,-99.0,-99.0,26.8726,,26.8743,,0.6487,85.0290,,7.556,,1.9043E+00,,1.0000E-12,,6.8332,6.8298,0.8381,,6.856,28.803,,,,,,,,,,,,
CalCOFI,2007SR,053,55,2007_053u,23-Jul-2020 11:33:09,23-Jul-2020 03:33:09,33.74500,-120.41006,083.3 055.0,083.3,055.0,473.000,476.938,,6.8729,,6.8725,,6.8727,34.2782,,34.2784,34.2796,,34.2812,34.2798,0.4743,,0.4779,0.4718,1.9592,,0.7360,0.4892,0.4805,20.627,21.0444,21.0406,85.208,,23.8621,22.4514,0.0330,,,,-99.0,,-99.0,-99.0,26.8737,,26.8748,,0.6457,85.0929,,7.556,,1.9043E+00,,1.0000E-12,,6.8283,6.8279,0.8381,,6.972,28.799,,,,,,,,,,,,
CalCOFI,2007SR,053,55,2007_053u,23-Jul-2020 11:33:10,23-Jul-2020 03:33:10,33.74500,-120.41006,083.3 055.0,083.3,055.0,472.000,475.928,,6.8824,,6.8849,,6.8837,34.2785,,34.2787,34.2804,,34.2820,34.2804,0.4800,,0.4839,0.4777,1.9559,,0.7281,0.4803,0.4790,20.877,21.3054,21.3017,85.065,,23.4782,22.3900,0.0327,,,,-99.0,,-99.0,-99.0,26.8726,,26.8737,,0.6459,85.0887,,7.556,,1.9043E+00,,1.0000E-12,,6.8379,6.8404,0.8381,,7.058,28.759,,,,,,,,,,,,
CalCOFI,2007SR,053,55,2007_053u,23-Jul-2020 11:33:11,23-Jul-2020 03:33:11,33.74500,-120.41006,083.3 055.0,083.3,055.0,471.000,474.919,,6.9137,,6.9017,,6.9077,34.2764,,34.2766,34.2782,,34.2798,34.2782,0.4822,,0.4862,0.4800,1.9524,,0.7198,0.4709,0.4755,20.972,21.4046,21.4010,84.912,,23.0675,22.2343,0.0326,,,,-99.0,,-99.0,-99.0,26.8667,,26.8697,,0.6463,85.0816,,7.557,,1.9043E+00,,1.0000E-12,,6.8692,6.8572,0.8381,,7.095,28.718,,,,,,,,,,,,
CalCOFI,2007SR,053,55,2007_053u,23-Jul-2020 11:33:12,23-Jul-2020 03:33:12,33.74500,-120.41006,083.3 055.0,083.3,055.0,470.000,473.909,,6.9204,,6.9171,,6.9188,34.2756,,34.2758,34.2778,,34.2794,34.2776,0.4852,,0.4893,0.4832,1.9504,,0.7150,0.4656,0.4744,21.104,21.5424,21.5389,84.827,,22.8393,22.1891,0.0325,,,,-99.0,,-99.0,-99.0,26.8651,,26.8673,,0.6460,85.0869,,7.558,,1.9043E+00,,1.0000E-12,,6.8759,6.8727,0.8381,,7.140,28.699,,,,,,,,,,,,
CalCOFI,2007SR,053,55,2007_053u,23-Jul-2020 11:33:13,23-Jul-2020 03:33:13,33.74500,-120.41006,083.3 055.0,083.3,055.0,469.000,472.900,,6.9221,,6.9208,,6.9215,34.2754,,34.2756,34.2770,,34.2786,34.2771,0.4867,,0.4909,0.4848,1.9555,,0.7272,0.4792,0.4820,21.168,21.6092,21.6058,85.050,,23.4379,22.5219,0.0327,,,,-99.0,,-99.0,-99.0,26.8648,,26.8661,,0.6460,85.0870,,7.558,,1.9043E+00,,1.0000E-12,,6.8777,6.8764,0.8381,,7.162,28.777,,,,,,,,,,,,
CalCOFI,2007SR,053,55,2007_053u,23-Jul-2020 11:33:14,23-Jul-2020 03:33:14,33.74502,-120.41006,083.3 055.0,083.3,055.0,468.000,471.890,,6.9278,,6.9263,,6.9271,34.2747,,34.2749,34.2763,,34.2779,34.2764,0.4871,,0.4913,0.4852,1.9621,,0.7429,0.4969,0.4911,21.185,21.6269,21.6235,85.337,,24.2084,22.9160,0.0331,,,,-99.0,,-99.0,-99.0,26.8634,,26.8649,,0.6459,85.0876,,7.559,,1.9043E+00,,1.0000E-12,,6.8835,6.8821,0.8381,,7.169,28.877,,,,,,,,,,,,
CalCOFI,2007SR,053,55,2007_053u,23-Jul-2020 11:33:15,23-Jul-2020 03:33:15,33.74502,-120.41006,083.3 055.0,083.3,055.0,467.000,470.881,,6.9290,,6.9281,,6.9286,34.2745,,34.2747,34.2760,,34.2776,34.2762,0.4903,,0.4946,0.4885,1.9557,,0.7276,0.4798,0.4842,21.326,21.7741,21.7708,85.058,,23.4594,22.6151,0.0324,,,,-99.0,,-99.0,-99.0,26.8631,,26.8644,,0.6464,85.0790,,7.559,,1.9043E+00,,1.0000E-12,,6.8848,6.8839,0.8381,,7.217,28.784,,,,,,,,,,,,
CalCOFI,2007SR,053,55,2007_053u,23-Jul-2020 11:33:16,23-Jul-2020 03:33:16,33.74501,-120.41006,083.3 055.0,083.3,055.0,466.000,469.872,,6.9309,,6.9302,,6.9306,34.2742,,34.2744,34.2758,,34.2774,34.2759,0.4920,,0.4964,0.4903,1.9553,,0.7267,0.4787,0.4845,21.396,21.8472,21.8440,85.037,,23.4030,22.6235,0.0332,,,,-99.0,,-99.0,-99.0,26.8626,,26.8639,,0.6464,85.0791,,7.560,,1.9043E+00,,1.0000E-12,,6.8868,6.8861,0.8381,,7.241,28.778,,,,,,,,,,,,
CalCOFI,2007SR,053,55,2007_053u,23-Jul-2020 11:33:17,23-Jul-2020 03:33:17,33.74500,-120.41006,083.3 055.0,083.3,055.0,465.000,468.862,,6.9340,,6.9337,,6.9339,34.2735,,34.2737,34.2751,,34.2767,34.2752,0.4962,,0.5008,0.4947,1.9548,,0.7255,0.4774,0.4861,21.579,22.0382,22.0352,85.019,,23.3547,22.6950,0.0329,,,,-99.0,,-99.0,-99.0,26.8616,,26.8628,,0.6464,85.0791,,7.560,,1.9043E+00,,1.0000E-12,,6.8900,6.8897,0.8381,,7.303,28.774,,,,,,,,,,,,
CalCOFI,2007SR,053,55,2007_053u,23-Jul-2020 11:33:18,23-Jul-2020 03:33:18,33.74500,-120.41006,083.3 055.0,083.3,055.0,464.000,467.853,,6.9341,,6.9341,,6.9341,34.2737,,34.2739,34.2751,,34.2767,34.2753,0.4982,,0.5029,0.4968,1.9546,,0.7250,0.4768,0.4868,21.666,22.1290,22.1261,85.007,,23.3225,22.7243,0.0333,,,,-99.0,,-99.0,-99.0,26.8616,,26.8628,,0.6464,85.0791,,7.560,,1.9043E+00,,1.0000E-12,,6.8902,6.8901,0.8381,,7.333,28.771,,,,,,,,,,,,